[[{"header":{"parameterUnit":"m.s-1","parameterCategory":1,"la1":30.2991,"la2":30.254,"lo1":-89.0895,"lo2":-89.0444,"dy":0.0017,"dx":0.0017,"nx":28,"ny":28,"refTime":"2024-03-04T03:00:00:Z","depth":0,"parameterNumber":2,"parameterNumberName":"U-component_of_WINDS"},"data":[0,0,0,0,0,0,0,0,0,0,0,0,0,0,0,0,0,0,0,0,0,0,0,0,0,0,0,0,0,0,0,0,0,0,0,0,0,0,0,0,0,0,0,0,0,0,0,0,0,0,0,0,0,0,0,0,0,0,-4.1819,-4.182,0,-4.1844,-4.1845,-4.1845,-4.1722,-4.1718,-4.1714,-4.1711,-4.1738,-4.1742,-4.1746,0,0,0,0,0,0,0,0,0,0,0,0,0,-4.1666,-4.167,-4.1819,-4.182,-4.182,-4.1844,-4.1845,-4.1845,-4.1722,-4.1718,-4.1713,-4.1709,-4.1737,-4.1742,-4.1746,0,0,0,0,0,0,0,0,0,0,0,0,0,-4.1717,-4.1671,-4.1819,-4.1762,-4.1757,-4.1844,-4.1845,-4.1845,-4.1723,-4.1718,-4.1712,-4.1707,-4.1735,-4.1741,-4.1747,-4.1892,0,0,-4.1766,-4.1768,0,0,0,0,0,0,0,0,-4.1714,-4.1722,-4.177,-4.1766,-4.176,-4.1774,-4.1801,-4.1861,-4.1724,-4.1736,-4.1711,-4.1705,-4.1755,-4.1759,-4.1775,-4.1893,-4.1894,-4.1766,-4.177,-4.1773,-4.1774,0,0,0,0,0,0,0,-4.171,-4.172,-4.1829,-4.1771,-4.1765,-4.1735,-4.1736,-4.1812,-4.1775,-4.1734,-4.1726,-4.173,-4.1751,-4.177,-4.1775,-4.1895,-4.1766,-4.1772,-4.1775,-4.1778,-4.2134,-4.214,0,0,0,0,0,0,-4.1715,-4.1718,-4.1828,-4.183,-4.1723,-4.1742,-4.1743,-4.1775,-4.1774,-4.1768,-4.1735,-4.1724,-4.1762,-4.1768,-4.1776,-4.1946,-4.1773,-4.1778,-4.1782,-4.2129,-4.2136,-4.2142,0,0,0,0,0,0,-4.1712,-4.1725,-4.1827,-4.1772,-4.1782,-4.175,-4.1787,-4.1779,-4.1797,-4.1774,-4.1767,-4.176,-4.1758,-4.1767,-4.1864,-4.1945,-4.1781,-4.1787,-4.2122,-4.2131,-4.2139,-4.2287,0,0,0,0,0,0,-4.1708,-4.1725,-4.1779,-4.1774,-4.1786,-4.1916,-4.1792,-4.1783,-4.1808,-4.1794,-4.1796,-4.1792,-4.1754,-4.1856,-4.187,-4.195,-4.1791,-4.2114,-4.2126,-4.2136,-4.2275,-4.23,-4.2321,0,0,0,0,0,-4.1703,-4.182,-4.1783,-4.1797,-4.1853,-4.192,-4.1927,-4.1882,-4.1815,-4.1869,-4.1855,-4.1791,-4.1934,-4.1867,-4.1882,-4.1965,-4.2109,-4.2123,-4.2135,-4.2265,-4.2295,-4.2321,0,0,0,0,0,0,-4.1835,-4.1818,-4.1777,-4.1895,-4.1911,-4.1899,-4.1966,-4.1915,-4.195,-4.1936,-4.1878,-4.188,-4.1988,-4.1986,-4.1911,-4.2106,-4.201,-4.2027,-4.2103,-4.2132,-4.2155,-4.2153,-4.1796,0,0,0,0,0,-4.1879,-4.1935,-4.1916,-4.2023,-4.2033,-4.1999,-4.2027,-4.1991,-4.2004,-4.2009,-4.2002,-4.2017,-4.2066,-4.2099,-4.2142,-4.2274,-4.2274,-4.2339,-4.2362,-4.2382,-4.2397,-4.2468,-4.2497,-4.2185,-4.2185,-4.2185,0,0,-4.1968,-4.1966,-4.2004,-4.205,-4.2057,-4.2117,-4.2005,-4.2072,-4.2116,-4.202,-4.2111,-4.2107,-4.212,-4.2236,-4.2287,-4.2238,-4.2483,-4.2398,-4.2414,-4.2418,-4.2485,-4.2514,-4.2541,-4.2194,-4.2192,-4.2191,0,0,-4.2162,-4.2166,-4.2255,-4.2265,-4.2278,-4.2255,-4.2277,-4.2274,-4.2267,-4.2358,-4.2287,-4.2339,-4.2423,-4.2436,-4.2454,-4.2655,-4.2599,-4.2671,-4.2792,-4.2862,-4.2887,-4.2908,-4.2981,-4.3007,-4.2686,-4.2686,-4.2687,0,-4.2271,-4.2358,-4.2308,-4.2381,-4.2403,-4.2319,-4.241,-4.2422,-4.2449,-4.2467,-4.2412,-4.2516,-4.2519,-4.2638,-4.2687,-4.2704,-4.2728,-4.267,-4.2887,-4.2908,-4.2928,-4.2996,-4.3024,-4.2695,-4.2694,-4.2693,-4.2692,0,-4.2493,-4.2555,-4.2626,-4.2654,-4.2684,-4.2766,-4.2729,-4.2766,-4.2728,-4.2711,-4.2806,-4.2807,-4.285,-4.2875,-4.2838,-4.2989,-4.2959,-4.2897,-4.2799,-4.2967,-4.303,-4.3056,-4.2708,-4.2705,-4.2702,-4.27,0,0,-4.2769,-4.277,-4.2797,-4.2809,-4.2818,-4.2865,-4.2944,-4.2985,-4.3018,-4.304,-4.3105,-4.3179,-4.3122,-4.3143,-4.3107,-4.3169,-4.3329,-4.3099,-4.3098,-4.3142,-4.3497,-4.3543,-4.3575,-4.3292,-4.3297,-4.3301,-4.3496,0,-4.2959,-4.3093,-4.3051,-4.3187,-4.3244,-4.3165,-4.3234,-4.3247,-4.3235,-4.3281,-4.3267,-4.3321,-4.3241,-4.3253,-4.331,-4.3298,-4.34,-4.3283,-4.3353,-4.3356,-4.3352,-4.3607,-4.3657,-4.3841,-4.352,-4.3524,-4.3527,0,-4.3198,-4.323,-4.3372,-4.3372,-4.3395,-4.3457,-4.3493,-4.3538,-4.3552,-4.3539,-4.3563,-4.3515,-4.3593,-4.3496,-4.3603,-4.3525,-4.3551,-4.3549,-4.3555,-4.356,-4.3452,-4.3619,-4.3898,-4.3926,-4.3566,-4.3563,-4.356,0,-4.3386,-4.3465,-4.356,-4.3573,-4.3576,-4.3622,-4.3625,-4.3634,-4.3662,-4.3694,-4.3712,-4.3752,-4.3774,-4.3807,-4.3772,-4.3704,-4.3885,-4.3784,-4.3877,-4.3878,-4.3918,-4.3916,-4.4205,-4.3935,-4.3935,-4.3934,-4.3934,0,-4.3603,-4.3693,-4.3644,-4.3703,-4.3802,-4.3753,-4.3853,-4.3847,-4.3856,-4.3913,-4.3848,-4.3903,-4.3853,-4.3903,-4.3876,-4.397,-4.398,-4.3972,-4.3964,-4.3978,-4.3979,-4.3994,-4.3981,-4.3942,-4.394,-4.3939,-4.3937,0,-4.3829,-4.38,-4.3899,-4.3894,-4.3896,-4.3969,-4.3965,-4.4019,-4.4002,-4.4075,-4.4089,-4.4063,-4.4119,-4.4088,-4.4145,-4.4127,-4.4249,-4.4224,-4.4245,-4.4238,-4.4332,-4.4324,-4.4641,-4.468,-4.4385,-4.4388,-4.4391,0,-4.3969,-4.4036,-4.4039,-4.4073,-4.4081,-4.4136,-4.4164,-4.412,-4.4153,-4.4175,-4.4228,-4.4278,-4.4316,-4.4411,-4.4397,-4.4441,-4.4416,-4.4524,-4.4422,-4.4435,-4.4418,-4.4415,-4.4422,-4.4545,-4.4548,-4.4551,-4.4553,0,-4.422,-4.4203,-4.4247,-4.4287,-4.4324,-4.4353,-4.4377,-4.4408,-4.4364,-4.4405,-4.4462,-4.4492,-4.4551,-4.4603,-4.4641,-4.4645,-4.4593,-4.4586,-4.461,-4.4624,-4.4634,-4.4631,-4.4301,-4.4579,-4.4576,-4.4574,-4.4573,-4.4572,-4.4407,-4.4464,-4.4476,-4.4528,-4.4541,-4.4566,-4.4617,-4.4607,-4.4654,-4.4699,-4.467,-4.4738,-4.4752,-4.4798,-4.4809,-4.4862,-4.4818,-4.4853,-4.4861,-4.4871,-4.4884,-4.4626,-4.4869,-4.4868,-4.4867,-4.4867,-4.4866,0,-4.4655,-4.4659,-4.4708,-4.4744,-4.4785,-4.4733,-4.4757,-4.4795,-4.4855,-4.4873,-4.4913,-4.4979,-4.5029,-4.5021,-4.5067,-4.5111,-4.5088,-4.5124,-4.512,-4.5123,-4.492,-4.4895,-4.5142,-4.5142,-4.5142,-4.5142,-4.5142,-4.5142,-4.4789,-4.4883,-4.4868,-4.4968,-4.4972,-4.5038,-4.5056,-4.5079,-4.5093,-4.517,-4.5212,-4.5206,-4.5213,-4.526,-4.5304,-4.53,-4.532,-4.5366,-4.5354,-4.5164,-4.5137,-4.5111,-4.5087,-4.5371,-4.5371,-4.5552,-4.5553,-4.5555]},{"header":{"parameterUnit":"m.s-1","parameterCategory":1,"la1":30.2991,"la2":30.254,"lo1":-89.0895,"lo2":-89.0444,"dy":0.0017,"dx":0.0017,"nx":28,"ny":28,"refTime":"2024-03-04T03:00:00:Z","depth":0,"parameterNumber":3,"parameterNumberName":"V-component_of_WINDS"},"data":[0,0,0,0,0,0,0,0,0,0,0,0,0,0,0,0,0,0,0,0,0,0,0,0,0,0,0,0,0,0,0,0,0,0,0,0,0,0,0,0,0,0,0,0,0,0,0,0,0,0,0,0,0,0,0,0,0,0,-0.7205,-0.7205,0,-0.7175,-0.7175,-0.7175,-0.7189,-0.7189,-0.719,-0.7191,-0.7156,-0.7155,-0.7153,0,0,0,0,0,0,0,0,0,0,0,0,0,-0.7269,-0.7268,-0.7205,-0.7205,-0.7205,-0.7175,-0.7175,-0.7175,-0.7189,-0.719,-0.719,-0.7191,-0.7157,-0.7155,-0.7153,0,0,0,0,0,0,0,0,0,0,0,0,0,-0.7241,-0.7268,-0.7205,-0.7208,-0.7208,-0.7176,-0.7175,-0.7174,-0.7188,-0.719,-0.7191,-0.7192,-0.7157,-0.7155,-0.7153,-0.7114,0,0,-0.7145,-0.7144,0,0,0,0,0,0,0,0,-0.7242,-0.7238,-0.7208,-0.7208,-0.7208,-0.7187,-0.7185,-0.7154,-0.7188,-0.7196,-0.7191,-0.7192,-0.7165,-0.7162,-0.7154,-0.7113,-0.7111,-0.7145,-0.7143,-0.7142,-0.7142,0,0,0,0,0,0,0,-0.7244,-0.724,-0.7193,-0.7208,-0.7207,-0.7209,-0.7206,-0.7179,-0.7174,-0.7195,-0.7196,-0.7193,-0.7165,-0.7156,-0.7153,-0.7111,-0.7145,-0.7143,-0.7141,-0.714,-0.7033,-0.7032,0,0,0,0,0,0,-0.7247,-0.7241,-0.7194,-0.7192,-0.7228,-0.7207,-0.7204,-0.7192,-0.7175,-0.7173,-0.7192,-0.7193,-0.716,-0.7156,-0.7152,-0.7103,-0.7142,-0.714,-0.7139,-0.7034,-0.7033,-0.7031,0,0,0,0,0,0,-0.7248,-0.7243,-0.7196,-0.7217,-0.7211,-0.7205,-0.7192,-0.7191,-0.7182,-0.7172,-0.7171,-0.7184,-0.7161,-0.7155,-0.7123,-0.7103,-0.7139,-0.7137,-0.7036,-0.7034,-0.7032,-0.7008,0,0,0,0,0,0,-0.725,-0.7243,-0.723,-0.7217,-0.721,-0.7169,-0.7191,-0.719,-0.7178,-0.718,-0.7164,-0.7162,-0.7161,-0.7127,-0.7121,-0.71,-0.7135,-0.7038,-0.7035,-0.7032,-0.701,-0.7005,-0.7001,0,0,0,0,0,-0.7252,-0.7224,-0.7229,-0.7223,-0.7194,-0.7167,-0.7163,-0.7164,-0.7177,-0.7162,-0.7155,-0.7163,-0.7106,-0.7123,-0.7117,-0.7095,-0.7039,-0.7036,-0.7033,-0.7012,-0.7006,-0.7001,0,0,0,0,0,0,-0.7233,-0.7222,-0.7228,-0.7195,-0.7182,-0.717,-0.7152,-0.7158,-0.714,-0.7142,-0.7142,-0.7138,-0.7104,-0.7096,-0.7116,-0.7055,-0.7074,-0.707,-0.7061,-0.7055,-0.705,-0.7052,-0.7133,0,0,0,0,0,-0.7226,-0.7207,-0.7198,-0.7169,-0.7163,-0.7158,-0.7147,-0.7148,-0.7134,-0.7129,-0.712,-0.7105,-0.7083,-0.7069,-0.7049,-0.701,-0.7005,-0.6991,-0.6986,-0.6983,-0.6978,-0.6953,-0.6946,-0.7021,-0.7021,-0.7021,0,0,-0.7209,-0.72,-0.7188,-0.7165,-0.7156,-0.7134,-0.7154,-0.7131,-0.7114,-0.7125,-0.7093,-0.7086,-0.7069,-0.7032,-0.7016,-0.7025,-0.6956,-0.6979,-0.6976,-0.6973,-0.6949,-0.6942,-0.6936,-0.7019,-0.7019,-0.7019,0,0,-0.7167,-0.716,-0.7134,-0.7124,-0.7109,-0.7107,-0.71,-0.7087,-0.7083,-0.7051,-0.7058,-0.7038,-0.7002,-0.6989,-0.6977,-0.6929,-0.6934,-0.6922,-0.6896,-0.6872,-0.6866,-0.6861,-0.6841,-0.6834,-0.6918,-0.6918,-0.6918,0,-0.7147,-0.7117,-0.712,-0.7096,-0.7084,-0.7094,-0.7067,-0.7056,-0.7035,-0.7026,-0.7037,-0.699,-0.698,-0.6939,-0.6927,-0.6918,-0.6909,-0.6923,-0.6867,-0.6862,-0.6857,-0.6837,-0.683,-0.6916,-0.6916,-0.6917,-0.6917,0,-0.7092,-0.7071,-0.7052,-0.7031,-0.7018,-0.6992,-0.6989,-0.6975,-0.6977,-0.6972,-0.6938,-0.6926,-0.6903,-0.6893,-0.6895,-0.6851,-0.6857,-0.6868,-0.6887,-0.6848,-0.683,-0.6823,-0.6914,-0.6915,-0.6915,-0.6915,0,0,-0.7037,-0.7019,-0.7011,-0.7001,-0.6985,-0.6968,-0.6941,-0.6919,-0.6905,-0.689,-0.6866,-0.6835,-0.6844,-0.6831,-0.6831,-0.6811,-0.6769,-0.6823,-0.6823,-0.6811,-0.6716,-0.6707,-0.6698,-0.6773,-0.6772,-0.6771,-0.6717,0,-0.6992,-0.6947,-0.6948,-0.6906,-0.6884,-0.6893,-0.687,-0.6856,-0.685,-0.683,-0.6823,-0.68,-0.6815,-0.6807,-0.6787,-0.6779,-0.675,-0.6783,-0.6748,-0.6747,-0.675,-0.6689,-0.6679,-0.6629,-0.671,-0.6709,-0.6708,0,-0.6933,-0.6916,-0.6872,-0.6857,-0.6848,-0.6827,-0.6806,-0.6787,-0.6771,-0.6768,-0.6753,-0.6756,-0.6726,-0.6748,-0.6705,-0.6728,-0.6714,-0.6707,-0.6705,-0.67,-0.6723,-0.6679,-0.6613,-0.6604,-0.6697,-0.6698,-0.6699,0,-0.6893,-0.686,-0.6828,-0.682,-0.6803,-0.6787,-0.6779,-0.6764,-0.675,-0.6731,-0.6721,-0.6699,-0.6685,-0.6667,-0.6662,-0.6679,-0.6619,-0.6641,-0.6613,-0.6613,-0.6598,-0.6599,-0.6526,-0.6594,-0.6594,-0.6594,-0.6594,0,-0.6841,-0.6813,-0.681,-0.679,-0.6758,-0.6759,-0.6726,-0.6719,-0.6705,-0.6683,-0.6689,-0.6667,-0.6664,-0.6641,-0.6637,-0.6601,-0.6596,-0.6591,-0.6589,-0.6588,-0.6589,-0.6577,-0.658,-0.6592,-0.6592,-0.6593,-0.6593,0,-0.6791,-0.6788,-0.6754,-0.674,-0.6736,-0.6713,-0.67,-0.668,-0.6675,-0.6646,-0.6639,-0.663,-0.6603,-0.6598,-0.6565,-0.6563,-0.6518,-0.6522,-0.6524,-0.6523,-0.6495,-0.6496,-0.641,-0.6397,-0.6476,-0.6475,-0.6475,0,-0.6757,-0.6735,-0.6719,-0.6705,-0.6696,-0.6673,-0.6659,-0.6658,-0.6643,-0.6621,-0.6603,-0.6577,-0.6555,-0.651,-0.65,-0.6474,-0.6475,-0.6447,-0.6472,-0.647,-0.6471,-0.6471,-0.6468,-0.6441,-0.644,-0.644,-0.6439,0,-0.6695,-0.6694,-0.6674,-0.6653,-0.6636,-0.6618,-0.6602,-0.659,-0.6587,-0.6568,-0.6541,-0.6524,-0.6491,-0.6463,-0.6437,-0.6426,-0.643,-0.6432,-0.6424,-0.6421,-0.6421,-0.6418,-0.6508,-0.6433,-0.6434,-0.6434,-0.6435,-0.6435,-0.6649,-0.663,-0.6615,-0.6591,-0.6579,-0.6563,-0.6543,-0.6536,-0.6513,-0.6487,-0.6488,-0.6456,-0.6438,-0.6404,-0.6392,-0.6366,-0.6374,-0.6363,-0.636,-0.6356,-0.6352,-0.6428,-0.6361,-0.6361,-0.6362,-0.6362,-0.6362,0,-0.6585,-0.6576,-0.6555,-0.6532,-0.6513,-0.6521,-0.6503,-0.6485,-0.6458,-0.6442,-0.6421,-0.6387,-0.636,-0.6348,-0.632,-0.6301,-0.6302,-0.6294,-0.6294,-0.629,-0.6347,-0.6356,-0.6293,-0.6293,-0.6293,-0.6293,-0.6293,-0.6293,-0.655,-0.6516,-0.6513,-0.6472,-0.6463,-0.6433,-0.6422,-0.6406,-0.6393,-0.6356,-0.6333,-0.6326,-0.631,-0.6281,-0.6255,-0.6252,-0.624,-0.623,-0.6227,-0.628,-0.6287,-0.6293,-0.6301,-0.6228,-0.6228,-0.6172,-0.6171,-0.6171]}]]